KA8OAD-1 Weather Reports


Display with metric or nautical units.
time (UTC)temp
F
wind
direction
speed
MPH
gust
MPH
rain 1hr
in
rain 24hr
in
rain mn
in
humidity
%
barometer
mb
20260505175503 67 260 3.0 15.0 0.00 0.01 0.01 63 1006.2
20260505175005 67 288 3.0 11.0 0.00 0.01 0.01 63 1006.1
20260505174504 67 270 3.0 11.0 0.00 0.01 0.01 62 1006.1
20260505174004 67 259 3.0 10.0 0.00 0.01 0.01 62 1006.1
20260505173004 68 260 3.0 8.0 0.00 0.01 0.01 61 1006.0
20260505172504 68 281 5.0 17.0 0.00 0.01 0.01 61 1006.0
20260505172005 68 289 5.0 17.0 0.00 0.01 0.01 60 1005.9
20260505171504 68 290 4.0 11.0 0.00 0.01 0.01 61 1006.0
20260505171008 68 263 4.0 13.0 0.00 0.01 0.01 60 1006.0
20260505170503 68 242 4.0 13.0 0.00 0.01 0.01 60 1006.0
20260505170006 68 248 3.0 10.0 0.00 0.01 0.01 60 1005.9
20260505165504 68 284 4.0 15.0 0.00 0.01 0.01 59 1005.9
20260505164504 69 285 4.0 9.0 0.00 0.01 0.01 58 1006.0
20260505164004 70 280 4.0 10.0 0.00 0.01 0.01 57 1005.9
20260505163504 70 246 4.0 10.0 0.00 0.01 0.01 58 1005.8
20260505163004 70 234 5.0 10.0 0.00 0.01 0.01 57 1005.8
20260505161504 72 236 5.0 12.0 0.00 0.01 0.01 57 1005.8
20260505160504 72 238 4.0 12.0 0.00 0.01 0.01 59 1005.7
20260505152504 70 225 5.0 14.0 0.00 0.01 0.01 59 1005.1
20260505152004 70 221 4.0 12.0 0.00 0.01 0.01 62 1005.3
20260505151504 69 234 4.0 12.0 0.00 0.01 0.01 61 1005.5
20260505151005 69 243 4.0 13.0 0.00 0.01 0.01 62 1005.3
20260505150504 68 239 5.0 13.0 0.00 0.01 0.01 63 1005.3
20260505140504 64 228 7.0 21.0 0.00 0.01 0.01 71 1004.9
20260505125004 60 218 3.0 7.0 0.01 0.01 0.01 78 1005.0
20260505124504 60 229 2.0 6.0 0.01 0.01 0.01 79 1005.0
20260505124004 60 236 1.0 4.0 0.01 0.01 0.01 79 1004.9
20260505122503 60 305 3.0 7.0 0.01 0.01 0.01 79 1004.8
20260505122005 60 305 3.0 7.0 0.01 0.01 0.01 79 1005.0
20260505121503 60 244 3.0 7.0 0.00 0.00 0.00 78 1004.8
20260505120503 60 203 5.0 10.0 0.00 0.00 0.00 77 1004.0
20260505120005 60 197 5.0 12.0 0.00 0.00 0.00 77 1003.8
20260505115504 60 206 6.0 17.0 0.00 0.00 0.00 76 1003.8
20260505115005 61 214 6.0 17.0 0.00 0.00 0.00 75 1003.9
20260505114504 61 214 6.0 15.0 0.00 0.00 0.00 73 1003.8
20260505114005 62 216 5.0 13.0 0.00 0.00 0.00 72 1003.9
20260505113503 62 223 6.0 12.0 0.00 0.00 0.00 70 1004.1
20260505113005 62 221 6.0 12.0 0.00 0.00 0.00 69 1004.4
20260505112503 62 222 4.0 10.0 0.00 0.00 0.00 69 1004.3
20260505112005 62 230 4.0 11.0 0.00 0.00 0.00 69 1004.3
20260505111503 62 219 4.0 11.0 0.00 0.00 0.00 69 1004.3
20260505110504 62 202 3.0 7.0 0.00 0.00 0.00 69 1004.0
20260505101504 63 223 3.0 7.0 0.00 0.00 0.00 67 1003.6
20260505100503 64 219 3.0 6.0 0.00 0.00 0.00 65 1003.6
20260505100005 64 220 3.0 7.0 0.00 0.00 0.00 65 1003.4
20260505095503 64 224 4.0 11.0 0.00 0.00 0.00 64 1003.5
20260505095004 64 224 4.0 11.0 0.00 0.00 0.00 64 1003.3
20260505094005 64 231 4.0 9.0 0.00 0.00 0.00 64 1003.2
20260505093503 64 236 4.0 10.0 0.00 0.00 0.00 65 1003.2
20260505093005 64 237 4.0 14.0 0.00 0.00 0.00 65 1003.1
20260505092503 64 236 3.0 14.0 0.00 0.00 0.00 65 1003.0
20260505091504 64 222 4.0 11.0 0.00 0.00 0.00 65 1002.9
20260505090504 64 225 3.0 10.0 0.00 0.00 0.00 65 1002.7
20260505090004 64 222 3.0 9.0 0.00 0.00 0.00 65 1002.8
20260505085504 64 227 4.0 9.0 0.00 0.00 0.00 65 1002.8
20260505085004 64 230 4.0 8.0 0.00 0.00 0.00 65 1002.7
20260505084504 64 226 4.0 11.0 0.00 0.00 0.00 65 1002.7
20260505084004 64 224 4.0 12.0 0.00 0.00 0.00 65 1002.7
20260505083504 64 229 4.0 12.0 0.00 0.00 0.00 66 1002.6
20260505083004 64 229 4.0 9.0 0.00 0.00 0.00 66 1002.7
20260505082504 64 233 3.0 8.0 0.00 0.00 0.00 66 1002.7
20260505082004 64 232 3.0 8.0 0.00 0.00 0.00 67 1002.7
20260505081504 64 222 3.0 8.0 0.00 0.00 0.00 67 1002.7
20260505080004 64 229 3.0 7.0 0.00 0.00 0.00 67 1002.4
20260505075004 64 224 3.0 7.0 0.00 0.00 0.00 67 1002.3
20260505074503 64 216 3.0 7.0 0.00 0.00 0.00 67 1002.3
20260505073503 63 225 3.0 7.0 0.00 0.00 0.00 68 1002.2
20260505072504 63 217 3.0 8.0 0.00 0.00 0.00 68 1002.2
20260505071504 63 220 3.0 7.0 0.00 0.00 0.00 68 1002.1
20260505071004 63 234 3.0 5.0 0.00 0.00 0.00 68 1002.1
20260505070504 63 236 3.0 5.0 0.00 0.00 0.00 68 1002.1
20260505070004 63 231 2.0 5.0 0.00 0.00 0.00 68 1002.3
20260505065504 63 216 2.0 6.0 0.00 0.00 0.00 68 1002.3
20260505065004 63 214 3.0 6.0 0.00 0.00 0.00 68 1002.3
20260505064504 63 215 3.0 6.0 0.00 0.00 0.00 68 1002.3
20260505064004 63 221 3.0 7.0 0.00 0.00 0.00 68 1002.4
20260505063503 64 225 3.0 7.0 0.00 0.00 0.00 67 1002.4
20260505062504 64 217 3.0 8.0 0.00 0.00 0.00 67 1002.5
20260505062004 64 206 3.0 8.0 0.00 0.00 0.00 67 1002.6
20260505061004 64 204 3.0 7.0 0.00 0.00 0.00 66 1002.6
20260505060503 64 203 3.0 7.0 0.00 0.00 0.00 67 1002.6
20260505055503 64 212 3.0 7.0 0.00 0.00 0.00 66 1002.7
20260505055005 64 216 4.0 8.0 0.00 0.00 0.00 66 1002.7
20260505054004 64 215 3.0 9.0 0.00 0.00 0.00 66 1003.0
20260505053504 64 220 3.0 8.0 0.00 0.00 0.00 66 1003.0
20260505052504 64 219 4.0 11.0 0.00 0.00 0.00 66 1003.1
20260505052004 64 210 4.0 9.0 0.00 0.00 0.00 66 1003.2
20260505051504 64 211 4.0 12.0 0.00 0.00 0.00 66 1003.1
20260505051004 64 213 4.0 12.0 0.00 0.00 0.00 66 1003.1
20260505050503 64 214 4.0 9.0 0.00 0.00 0.00 66 1003.1
20260505041504 64 204 4.0 9.0 0.00 0.00 0.00 66 1003.4
20260505041005 64 206 4.0 10.0 0.00 0.00 0.00 66 1003.5
20260505040504 64 203 3.0 10.0 0.00 0.00 0.00 66 1003.4
20260505035504 64 214 3.0 9.0 0.00 0.00 0.00 66 1003.6
20260505035005 64 207 3.0 7.0 0.00 0.00 0.00 66 1003.6
20260505034504 64 211 3.0 9.0 0.00 0.00 0.00 66 1003.7
20260505034005 64 219 3.0 9.0 0.00 0.00 0.00 65 1003.7
20260505033504 64 218 4.0 8.0 0.00 0.00 0.00 65 1003.7
20260505032504 64 212 3.0 7.0 0.00 0.00 0.00 65 1003.7
20260505032004 64 217 3.0 9.0 0.00 0.00 0.00 65 1003.7
20260505031503 64 215 3.0 9.0 0.00 0.00 0.00 65 1003.7
20260505031004 64 215 3.0 9.0 0.00 0.00 0.00 65 1003.7
20260505030504 64 210 3.0 7.0 0.00 0.00 0.00 64 1003.5
20260505025504 64 209 3.0 13.0 0.00 0.00 0.00 64 1003.7
20260505025005 64 213 2.0 13.0 0.00 0.00 0.00 64 1003.8
20260505024504 64 208 1.0 4.0 0.00 0.00 0.00 64 1003.7
20260505023004 65 210 3.0 8.0 0.00 0.00 0.00 63 1003.7
20260505022004 65 208 2.0 5.0 0.00 0.00 0.00 62 1003.8
20260505021004 65 216 2.0 6.0 0.00 0.00 0.00 62 1004.0
20260505020004 66 217 3.0 5.0 0.00 0.00 0.00 61 1003.9
20260505015504 66 219 3.0 7.0 0.00 0.00 0.00 60 1003.9
20260505014504 66 224 4.0 12.0 0.00 0.00 0.00 59 1003.8
20260505014004 66 222 4.0 12.0 0.00 0.00 0.00 59 1003.8
20260505013504 66 212 4.0 9.0 0.00 0.00 0.00 59 1003.7
20260505013005 66 220 3.0 8.0 0.00 0.00 0.00 58 1003.7
20260505012504 67 228 4.0 10.0 0.00 0.00 0.00 58 1003.8
20260505012005 67 224 4.0 10.0 0.00 0.00 0.00 57 1003.7
20260505011504 67 220 4.0 7.0 0.00 0.00 0.00 57 1003.6
20260505011004 67 226 5.0 9.0 0.00 0.00 0.00 57 1003.5
20260505010503 67 226 4.0 9.0 0.00 0.00 0.00 57 1003.4
20260505010004 67 226 4.0 15.0 0.00 0.00 0.00 56 1003.4
20260505005504 67 220 5.0 15.0 0.00 0.00 0.00 56 1003.3
20260505004005 68 222 4.0 10.0 0.00 0.00 0.00 56 1003.3
20260505003504 68 221 3.0 6.0 0.00 0.00 0.00 57 1003.1
20260505003005 68 222 3.0 6.0 0.00 0.00 0.00 56 1003.1
20260505002504 68 216 3.0 6.0 0.00 0.00 0.00 57 1002.9
20260505002005 68 208 3.0 7.0 0.00 0.00 0.00 56 1002.8
20260505001504 68 212 3.0 8.0 0.00 0.00 0.00 56 1002.8
20260505001005 69 210 3.0 9.0 0.00 0.00 0.00 55 1002.6
20260505000503 69 205 3.0 9.0 0.00 0.00 0.00 55 1002.4
20260505000004 69 209 2.0 6.0 0.00 0.00 0.00 55 1002.4
20260504235503 69 216 3.0 7.0 0.00 0.00 0.00 55 1002.4
20260504235004 70 227 4.0 12.0 0.00 0.00 0.00 54 1002.4
20260504234503 70 226 5.0 12.0 0.00 0.00 0.00 54 1002.4
20260504234005 70 230 5.0 12.0 0.00 0.00 0.00 54 1002.4
20260504233504 70 228 5.0 12.0 0.00 0.00 0.00 54 1002.4
20260504233005 70 219 5.0 18.0 0.00 0.00 0.00 53 1002.3
20260504232504 70 226 6.0 18.0 0.00 0.00 0.00 52 1002.3
20260504232005 70 229 6.0 15.0 0.00 0.00 0.00 52 1002.4
20260504231504 70 227 5.0 15.0 0.00 0.00 0.00 52 1002.3
20260504231004 70 227 5.0 14.0 0.00 0.00 0.00 52 1002.4
20260504230504 70 232 6.0 19.0 0.00 0.00 0.00 52 1002.4
20260504230104 70 226 7.0 19.0 0.00 0.00 0.00 52 1002.5
20260504225504 70 217 6.0 17.0 0.00 0.00 0.00 53 1002.6
20260504225004 70 224 6.0 16.0 0.00 0.00 0.00 54 1002.6
20260504224504 70 225 5.0 16.0 0.00 0.00 0.00 55 1002.6
20260504224004 70 223 5.0 11.0 0.00 0.00 0.00 57 1002.7
20260504223504 70 218 4.0 12.0 0.00 0.00 0.00 57 1002.7
20260504223005 70 207 4.0 12.0 0.00 0.00 0.00 58 1002.8
20260504222504 71 212 5.0 10.0 0.00 0.00 0.00 59 1002.9
20260504222004 71 225 5.0 10.0 0.00 0.00 0.00 54 1002.9
20260504221503 71 223 5.0 9.0 0.00 0.00 0.00 53 1002.9
20260504221004 71 223 5.0 13.0 0.00 0.00 0.00 53 1002.9
20260504220504 71 227 5.0 13.0 0.00 0.00 0.00 52 1002.9
20260504220005 71 227 6.0 13.0 0.00 0.00 0.00 52 1002.9
20260504215504 71 226 5.0 13.0 0.00 0.00 0.00 52 1003.1
20260504215004 71 222 5.0 11.0 0.00 0.00 0.00 53 1003.2
20260504214504 72 224 5.0 11.0 0.00 0.00 0.00 52 1003.0
20260504214005 72 227 6.0 15.0 0.00 0.00 0.00 52 1003.1
20260504213504 72 225 6.0 15.0 0.00 0.00 0.00 51 1003.0
20260504213004 72 218 5.0 16.0 0.00 0.00 0.00 51 1003.0
20260504212504 72 210 5.0 16.0 0.00 0.00 0.00 51 1003.1
20260504212004 72 206 5.0 13.0 0.00 0.00 0.00 51 1003.1
20260504211004 72 225 5.0 15.0 0.00 0.00 0.00 52 1003.2
20260504210504 72 238 5.0 15.0 0.00 0.00 0.00 51 1003.2
20260504205504 72 223 5.0 12.0 0.00 0.00 0.00 51 1003.3
20260504205004 72 216 5.0 12.0 0.00 0.00 0.00 50 1003.4
20260504204504 72 224 5.0 14.0 0.00 0.00 0.00 50 1003.5
20260504203504 72 245 5.0 13.0 0.00 0.00 0.00 49 1003.5
20260504203004 72 225 5.0 13.0 0.00 0.00 0.00 51 1003.5
20260504202504 72 214 6.0 13.0 0.00 0.00 0.00 49 1003.4
20260504202004 72 221 7.0 16.0 0.00 0.00 0.00 48 1003.4
20260504201504 72 230 6.0 16.0 0.00 0.00 0.00 48 1003.6
20260504201004 72 234 4.0 12.0 0.00 0.00 0.00 51 1003.6
20260504200005 72 228 5.0 13.0 0.00 0.00 0.00 50 1003.7
20260504195503 72 223 6.0 13.0 0.00 0.00 0.00 49 1003.7
20260504195004 72 230 6.0 14.0 0.00 0.00 0.00 49 1003.8
20260504194004 72 227 5.0 15.0 0.00 0.00 0.00 49 1004.0
20260504193004 72 211 6.0 14.0 0.00 0.00 0.00 49 1004.2
20260504192504 72 206 5.0 14.0 0.00 0.00 0.00 49 1004.3
20260504192005 73 204 5.0 17.0 0.00 0.00 0.00 47 1004.4
20260504191004 73 204 4.0 11.0 0.00 0.00 0.00 48 1004.4
20260504190005 73 197 4.0 10.0 0.00 0.00 0.00 47 1004.6
20260504185504 74 220 5.0 12.0 0.00 0.00 0.00 47 1004.6
20260504185004 74 230 6.0 12.0 0.00 0.00 0.00 47 1004.7
20260504184504 73 221 5.0 11.0 0.00 0.00 0.00 46 1004.7
20260504184004 73 210 5.0 13.0 0.00 0.00 0.00 49 1004.8
20260504183504 73 203 5.0 13.0 0.00 0.00 0.00 48 1004.9
20260504183005 73 192 4.0 12.0 0.00 0.00 0.00 47 1005.0
20260504182503 74 187 5.0 12.0 0.00 0.00 0.00 45 1005.0
20260504182005 74 209 5.0 12.0 0.00 0.00 0.00 45 1004.9
20260504181503 74 213 5.0 12.0 0.00 0.00 0.00 47 1005.0
20260504181004 74 214 5.0 12.0 0.00 0.00 0.00 44 1005.0
20260504180504 74 217 5.0 11.0 0.00 0.00 0.00 46 1005.2
20260504180004 74 208 5.0 11.0 0.00 0.00 0.00 44 1005.1